Wind_Speed
4 5 4 4 3 3 3 2 2 2 3 3 3 3 3 3 3 3 4 4 4 3 3 4 5 5 5 6 7 7 7 7 7 7 7 7 7 7 7 8 8 8 8 8 8 7 7 6 6
5 5 5 5 4 3 3 3 3 3 3 3 3 3 3 3 3 3 4 4 4 4 4 5 5 5 5 6 7 7 7 7 7 8 8 7 7 6 7 7 8 8 8 8 8 7 7 7 6
5 6 5 5 4 3 3 4 4 4 3 3 3 4 4 3 3 4 4 4 4 4 4 5 5 6 6 6 6 7 8 7 7 8 8 8 8 7 7 8 8 8 8 8 8 8 7 7 7
5 5 5 5 4 3 4 4 4 4 4 3 3 4 4 3 3 4 4 4 5 5 5 5 5 5 6 6 7 7 7 7 7 8 8 8 8 8 8 8 8 8 8 8 8 8 8 8 8
5 5 5 5 4 4 4 4 5 4 4 4 4 4 4 3 3 4 5 5 5 6 5 5 5 5 6 6 6 7 7 7 7 8 8 8 8 8 8 8 8 8 8 8 8 8 8 9 9
5 5 5 5 5 5 4 4 5 5 4 4 4 4 4 4 4 4 5 5 5 5 5 5 5 5 6 6 6 6 7 7 7 7 7 7 7 7 7 7 7 8 8 8 8 8 8 9 9
5 4 4 5 5 5 5 5 5 5 5 4 4 4 4 4 4 4 5 5 5 5 5 5 5 5 6 6 6 6 6 6 6 6 6 7 7 7 7 6 7 8 8 8 9 9 9 9 9
4 5 5 5 5 5 5 5 5 5 6 6 5 4 5 4 4 5 5 4 4 5 5 5 5 5 5 6 6 6 6 6 6 6 6 6 6 6 7 6 6 7 8 9 10 10 9 9 9
4 4 5 5 5 5 5 6 6 6 6 6 5 5 5 5 5 5 5 5 5 4 4 4 5 4 5 5 5 5 5 6 6 6 6 6 6 7 6 6 6 7 8 9 10 10 9 9 9
4 4 5 5 5 5 5 5 6 6 6 6 6 5 5 5 5 5 5 5 5 5 5 4 4 4 4 5 4 4 5 5 5 5 6 6 6 6 6 6 7 7 7 8 9 9 9 9 9
4 4 5 5 5 6 6 5 5 6 6 6 6 5 5 5 5 5 5 5 5 5 4 4 3 3 3 3 3 3 4 4 5 5 5 5 6 6 6 6 7 7 8 8 9 9 9 9 9
4 4 4 5 5 5 5 5 5 5 5 6 5 5 5 6 6 6 6 5 5 4 4 4 3 3 3 2 2 2 3 3 4 5 5 5 5 6 6 6 6 7 7 8 8 9 9 9 8
3 3 3 4 4 5 5 5 5 5 6 5 5 5 6 6 6 7 6 6 5 4 3 3 3 2 3 3 2 2 3 4 4 4 5 5 5 5 5 6 6 5 6 7 8 8 8 8 7
2 3 3 3 4 4 5 5 5 6 6 6 5 5 6 6 7 7 6 5 5 5 4 3 2 2 2 2 2 2 3 3 3 4 4 4 5 5 5 5 6 5 6 6 7 7 7 8 8
2 2 1 2 3 3 4 4 5 6 6 6 6 5 5 6 7 7 6 6 5 5 5 4 3 2 2 2 3 3 3 3 3 3 4 4 4 4 5 5 5 6 6 6 6 6 7 7 8
1 1 0 1 2 3 3 4 5 5 6 6 6 5 6 6 7 6 6 6 5 5 5 5 4 3 3 3 3 3 3 3 2 3 3 4 4 4 4 4 4 5 5 6 6 6 7 7 7
2 1 1 1 1 2 3 4 5 5 5 6 5 5 5 6 6 6 6 6 6 6 5 5 5 4 3 3 3 3 3 2 2 3 3 3 3 3 3 3 4 4 5 5 5 5 5 6 6
2 2 1 1 2 2 3 4 4 4 4 5 5 5 5 5 5 6 6 6 6 6 6 5 5 4 4 3 2 3 3 2 2 2 3 3 3 3 3 3 4 4 4 4 4 5 5 5 5
4 3 2 1 1 2 3 3 3 4 4 4 5 5 5 5 5 5 5 6 6 6 6 5 5 4 3 3 4 4 3 3 3 3 3 3 3 3 4 4 4 4 5 5 5 5 6 6 6
5 4 3 3 3 2 3 3 4 3 4 4 4 5 5 6 5 5 5 5 6 6 6 6 5 4 4 4 4 4 4 4 3 3 4 4 3 4 4 4 4 5 5 5 5 5 5 5 5
5 4 4 4 4 4 4 4 4 4 4 4 4 4 5 6 6 6 6 6 6 6 6 6 5 4 4 4 4 4 5 4 3 3 4 4 5 5 5 5 5 5 6 6 6 6 6 6 5
6 6 6 5 5 5 5 4 4 4 5 5 5 4 5 6 6 6 6 7 7 7 7 7 6 5 5 5 5 5 5 5 5 4 4 4 5 5 5 6 6 6 6 7 7 7 7 6 6
7 7 7 7 7 7 6 5 5 5 5 6 5 6 6 7 7 7 7 8 8 7 7 7 7 6 6 6 6 5 5 5 5 5 5 5 5 5 6 6 6 6 6 6 7 7 8 8 8
8 8 9 9 8 8 7 6 6 6 6 6 6 7 7 8 8 8 9 9 9 8 8 8 8 7 7 7 6 6 6 6 6 5 5 6 6 6 6 7 7 7 7 7 8 8 8 9 9
10 9 9 9 9 8 8 8 7 7 7 8 8 8 9 9 8 9 10 10 9 9 9 9 9 8 8 8 7 7 7 7 7 7 6 7 7 7 7 8 8 8 8 9 9 9 10 10 10
10 11 11 10 10 9 9 9 9 9 9 9 10 10 10 10 9 9 9 9 9 9 9 9 9 9 9 9 9 9 9 8 8 8 8 8 8 8 8 8 9 9 9 10 10 10 11 11 11
10 11 11 12 11 11 11 11 10 10 10 10 10 11 11 11 11 10 10 10 10 10 9 10 10 10 10 10 10 10 10 10 10 10 10 10 10 10 10 9 10 11 11 11 11 11 11 11 12
11 11 12 12 12 13 12 12 11 11 11 11 11 11 11 11 11 11 11 11 11 10 10 11 11 11 11 10 10 10 10 11 11 12 12 12 12 12 12 11 11 11 11 11 11 12 12 12 12
12 12 13 13 14 14 15 13 13 12 12 13 13 13 12 12 12 12 12 12 12 12 12 12 12 12 12 12 12 12 12 12 12 12 12 12 12 12 12 12 12 12 11 11 12 12 12 12 13
13 13 14 14 14 15 17 15 15 14 13 13 14 14 14 13 13 13 13 13 13 13 13 13 13 13 13 13 13 13 13 13 13 13 13 13 13 13 13 13 12 13 13 13 14 14 14 14 14
Wind_Direction
2 359 355 347 338 350 353 2 18 7 357 347 336 331 326 315 307 291 280 273 273 276 281 278 270 262 260 258 255 255 249 251 250 248 247 242 241 240 237 237 236 235 235 237 241 251 248 241 246
0 356 356 350 337 348 355 6 13 7 357 344 336 329 317 310 300 296 292 288 285 285 282 276 271 269 265 262 258 254 250 248 250 249 246 241 242 241 238 239 237 236 234 234 238 244 243 244 241
4 6 359 347 344 353 5 9 14 7 358 350 340 330 321 306 296 295 295 295 290 287 285 279 271 270 269 265 260 256 254 248 250 247 245 243 241 240 242 235 236 237 234 234 237 239 242 241 236
9 5 352 347 357 8 19 20 20 21 15 8 356 344 337 321 307 302 300 292 288 283 283 280 275 274 273 269 262 257 254 249 247 243 244 246 246 243 241 237 234 234 236 238 240 243 243 245 241
5 353 349 351 6 16 21 20 14 17 17 11 3 356 349 329 314 305 305 301 292 282 280 278 274 276 273 271 266 259 255 251 245 243 242 245 247 248 244 240 239 239 242 242 244 247 247 252 251
8 354 354 358 10 17 18 13 12 15 10 6 5 1 356 340 321 308 310 311 308 295 285 280 272 272 270 267 267 262 257 251 245 241 238 244 245 243 242 247 250 250 248 248 246 247 251 255 256
5 2 3 5 12 18 19 19 16 16 12 3 1 359 358 347 334 322 320 318 316 316 303 288 281 276 272 267 266 261 257 250 246 242 243 246 246 247 244 251 254 254 249 250 250 248 255 258 257
356 354 0 10 17 23 22 22 20 15 9 5 2 4 4 354 347 336 330 325 320 318 311 303 288 279 275 268 266 262 256 246 242 244 245 250 248 249 249 250 252 253 255 254 251 249 251 254 256
345 343 356 9 19 28 25 22 17 13 11 10 5 3 5 1 354 345 333 327 323 321 310 303 300 288 279 271 267 261 254 246 240 243 245 251 251 252 252 252 253 255 258 258 252 250 249 252 255
351 359 10 17 23 25 22 16 15 11 10 10 4 360 359 359 359 354 343 332 328 326 320 304 305 294 283 271 264 259 255 249 244 244 244 250 252 252 251 253 255 258 260 258 254 251 250 252 256
359 9 10 16 22 21 17 13 11 7 8 13 14 10 359 2 2 360 354 343 337 332 338 331 314 308 298 279 264 259 252 247 247 245 247 253 255 254 253 256 259 260 256 254 253 252 252 253 253
357 4 13 23 25 22 17 13 10 10 9 15 19 18 18 16 13 8 5 359 347 336 333 341 333 330 314 297 276 262 255 254 253 245 247 251 257 260 255 259 262 258 255 255 257 255 251 251 248
347 1 20 29 24 23 19 14 13 19 21 23 21 20 21 17 12 9 8 8 3 353 340 333 331 338 333 312 301 277 265 265 257 255 249 247 257 264 260 259 258 256 257 257 255 254 252 249 248
334 351 8 18 20 24 25 22 21 25 28 27 23 24 18 11 8 10 11 10 5 6 6 355 338 341 350 331 321 299 281 270 262 264 260 255 254 254 255 262 259 262 264 263 260 256 253 250 249
330 348 3 27 37 34 32 25 23 24 27 25 23 22 13 11 11 13 15 16 11 8 7 5 357 344 349 335 323 318 286 273 271 267 266 258 250 252 254 260 265 268 272 268 267 262 255 253 253
302 292 295 61 68 48 33 28 28 27 25 20 19 20 16 14 13 14 17 18 15 13 13 16 13 2 355 343 330 323 306 285 282 281 274 267 257 254 256 260 267 268 266 267 268 268 260 257 256
276 263 290 14 53 44 27 27 31 28 19 15 14 15 13 14 14 15 15 14 11 9 8 11 10 10 7 358 342 333 319 291 292 288 288 281 270 262 261 272 276 271 267 267 271 274 270 267 266
276 270 261 343 19 23 17 19 26 21 9 5 7 6 5 5 8 9 6 7 3 358 356 356 357 360 2 6 355 337 337 314 303 290 287 292 284 276 278 283 282 275 271 274 278 278 276 273 269
272 277 295 330 5 353 353 351 359 5 358 2 3 357 352 352 353 356 356 358 355 350 347 348 349 347 346 354 350 338 325 309 292 285 290 294 291 292 288 292 285 273 269 269 277 280 278 276 274
266 278 301 310 312 313 323 325 329 333 342 351 353 347 342 343 343 345 346 347 342 338 335 335 340 336 331 336 334 337 327 314 300 287 289 291 287 291 292 285 284 277 272 274 272 274 275 278 278
266 276 286 297 300 305 312 324 322 326 329 338 344 343 335 332 329 331 333 333 329 327 325 324 328 322 320 321 320 319 322 317 314 303 295 289 283 283 284 284 285 283 276 275 278 277 273 277 274
268 267 273 283 295 306 310 318 318 328 330 328 330 332 328 324 322 321 324 325 320 316 316 315 314 308 307 304 305 306 311 309 302 300 293 290 289 285 284 286 287 286 284 279 278 282 284 282 278
264 267 274 281 288 295 300 304 313 323 327 325 324 325 324 321 314 311 312 315 313 310 309 307 304 300 296 296 297 300 304 299 291 289 288 288 286 285 285 287 287 287 286 282 280 283 285 285 285
262 268 274 280 284 284 294 303 310 317 323 324 324 324 321 318 313 309 307 309 311 309 307 303 300 299 292 287 290 295 293 290 286 286 288 288 285 282 279 281 284 285 283 284 284 283 283 285 286
264 266 270 275 278 282 290 298 309 314 316 319 320 318 316 314 311 305 302 303 306 306 305 301 296 296 290 285 285 288 287 286 287 287 288 288 285 283 278 278 279 281 282 284 284 284 281 280 282
267 268 270 273 274 277 282 291 303 309 309 311 314 314 312 309 306 305 301 298 300 300 300 299 296 293 288 283 283 283 281 280 281 282 283 284 284 285 284 279 278 280 283 284 283 283 282 278 279
271 270 270 274 276 279 282 287 298 303 305 309 310 309 307 306 305 303 301 298 295 293 292 292 292 291 288 286 283 282 281 279 277 277 279 281 282 280 280 280 281 282 284 286 285 284 283 279 278
270 269 271 274 278 281 283 288 294 300 301 302 304 306 306 305 304 301 300 300 297 294 291 289 289 287 286 286 286 285 284 281 279 277 278 281 281 277 278 280 283 282 282 285 285 287 286 284 283
270 267 269 272 275 279 282 287 293 294 296 298 301 304 304 303 299 296 295 295 294 291 290 289 287 284 283 283 283 284 284 283 281 280 279 279 279 277 277 277 278 280 279 281 282 284 287 286 284
268 269 268 272 276 278 281 286 287 288 291 294 298 303 304 302 296 291 290 291 292 291 289 288 286 283 281 280 279 281 282 281 279 279 279 278 278 277 275 275 277 277 277 279 282 284 285 286 284
Height
5890 5889 5889 5889 5888 5887 5886 5886 5884 5883 5883 5882 5882 5881 5881 5881 5882 5883 5880 5878 5878 5878 5877 5877 5877 5877 5877 5877 5877 5877 5877 5877 5877 5877 5877 5877 5877 5877 5878 5878 5879 5879 5879 5880 5880 5880 5881 5881 5881
5890 5889 5889 5889 5887 5886 5886 5885 5884 5883 5883 5882 5881 5881 5880 5880 5880 5879 5878 5877 5877 5877 5876 5876 5876 5876 5876 5875 5875 5876 5876 5876 5876 5876 5876 5876 5876 5876 5876 5877 5877 5878 5878 5879 5879 5879 5880 5880 5880
5890 5889 5890 5888 5887 5887 5886 5884 5883 5882 5882 5881 5881 5880 5880 5879 5879 5878 5877 5876 5876 5876 5875 5875 5875 5874 5874 5874 5874 5874 5874 5874 5874 5875 5875 5875 5875 5875 5875 5875 5876 5876 5877 5877 5878 5878 5879 5879 5879
5890 5890 5890 5888 5886 5886 5885 5884 5883 5882 5881 5881 5880 5879 5878 5878 5877 5877 5876 5875 5875 5874 5874 5874 5873 5873 5873 5873 5872 5872 5873 5873 5873 5873 5873 5874 5874 5874 5874 5874 5875 5875 5876 5876 5877 5877 5877 5877 5877
5890 5890 5889 5887 5886 5886 5884 5883 5882 5882 5881 5880 5879 5878 5877 5877 5876 5875 5874 5874 5874 5873 5873 5872 5872 5872 5871 5871 5871 5871 5871 5871 5871 5872 5872 5872 5872 5872 5872 5873 5873 5874 5874 5875 5875 5876 5876 5876 5876
5891 5890 5889 5887 5886 5885 5884 5883 5882 5881 5881 5880 5879 5878 5877 5876 5875 5874 5873 5872 5872 5871 5871 5871 5870 5870 5870 5870 5870 5870 5870 5870 5870 5870 5871 5871 5871 5871 5871 5871 5872 5872 5873 5873 5874 5874 5874 5875 5875
5891 5890 5888 5887 5886 5885 5884 5883 5882 5881 5880 5879 5878 5877 5876 5875 5874 5873 5872 5871 5870 5870 5869 5869 5869 5869 5868 5868 5868 5868 5868 5868 5868 5869 5869 5869 5869 5869 5870 5870 5870 5871 5871 5871 5872 5872 5872 5873 5873
5890 5890 5888 5887 5886 5885 5884 5882 5882 5881 5880 5879 5878 5876 5875 5874 5873 5872 5871 5870 5869 5869 5868 5867 5867 5867 5867 5867 5867 5866 5866 5867 5867 5867 5868 5868 5868 5868 5868 5868 5869 5869 5869 5869 5870 5870 5870 5871 5871
5890 5890 5887 5887 5885 5884 5883 5882 5881 5880 5879 5878 5877 5876 5875 5874 5872 5871 5870 5869 5869 5868 5867 5866 5866 5865 5865 5865 5865 5865 5865 5865 5865 5866 5866 5866 5867 5867 5867 5867 5867 5867 5867 5867 5867 5868 5868 5869 5869
5890 5889 5887 5887 5885 5884 5883 5882 5881 5880 5879 5877 5876 5875 5874 5873 5872 5870 5869 5868 5867 5866 5866 5865 5864 5864 5864 5863 5863 5863 5863 5864 5864 5864 5865 5865 5865 5865 5865 5865 5866 5866 5865 5866 5866 5866 5866 5867 5867
5889 5888 5887 5886 5885 5884 5883 5882 5881 5880 5879 5877 5876 5875 5873 5872 5871 5870 5869 5868 5866 5865 5864 5863 5863 5863 5862 5862 5862 5862 5862 5862 5862 5863 5863 5863 5864 5864 5864 5864 5864 5864 5864 5864 5864 5864 5864 5865 5865
5889 5888 5887 5886 5885 5884 5883 5882 5881 5879 5879 5877 5876 5874 5873 5872 5871 5869 5868 5867 5866 5865 5864 5863 5862 5862 5861 5861 5861 5861 5861 5861 5861 5861 5862 5862 5862 5862 5862 5863 5862 5862 5861 5862 5862 5862 5862 5862 5863
5889 5888 5887 5886 5885 5884 5882 5881 5880 5879 5878 5877 5875 5874 5873 5872 5870 5869 5868 5867 5865 5864 5863 5862 5862 5861 5860 5860 5860 5860 5860 5860 5860 5860 5860 5860 5860 5861 5861 5861 5860 5859 5860 5860 5860 5860 5860 5861 5861
5888 5887 5886 5885 5884 5883 5883 5882 5881 5879 5878 5876 5875 5874 5873 5872 5870 5869 5868 5866 5865 5863 5862 5861 5861 5860 5860 5859 5859 5859 5859 5859 5858 5859 5859 5859 5859 5859 5859 5859 5859 5858 5858 5858 5858 5859 5859 5859 5859
5888 5887 5886 5885 5884 5883 5883 5882 5880 5879 5877 5876 5875 5874 5873 5871 5870 5869 5867 5866 5865 5863 5862 5861 5860 5860 5859 5859 5858 5858 5858 5857 5857 5857 5857 5857 5857 5857 5858 5858 5858 5857 5857 5857 5857 5857 5857 5857 5857
5887 5887 5886 5885 5884 5883 5884 5882 5880 5879 5878 5876 5875 5874 5873 5871 5870 5869 5867 5866 5865 5863 5862 5861 5860 5859 5859 5858 5858 5857 5857 5856 5856 5856 5856 5856 5856 5856 5856 5856 5856 5856 5856 5856 5855 5855 5855 5855 5855
5887 5886 5885 5885 5884 5883 5883 5882 5880 5879 5878 5876 5875 5873 5872 5871 5870 5868 5867 5866 5864 5863 5862 5861 5860 5859 5858 5857 5857 5856 5856 5856 5855 5855 5855 5855 5855 5855 5855 5855 5855 5855 5854 5854 5854 5854 5854 5853 5853
5886 5885 5884 5883 5883 5882 5882 5881 5880 5879 5878 5876 5875 5873 5872 5871 5870 5868 5867 5865 5864 5863 5861 5860 5859 5858 5858 5857 5856 5856 5855 5855 5855 5854 5854 5854 5854 5854 5854 5854 5854 5853 5853 5853 5853 5852 5852 5852 5852
5884 5884 5883 5883 5882 5882 5881 5880 5879 5878 5877 5876 5874 5873 5872 5870 5869 5868 5866 5865 5864 5862 5861 5860 5859 5858 5857 5856 5856 5855 5855 5854 5854 5854 5853 5853 5853 5852 5852 5852 5852 5852 5852 5851 5851 5851 5851 5850 5850
5883 5882 5882 5882 5881 5881 5880 5879 5878 5877 5876 5875 5874 5872 5871 5870 5868 5867 5866 5864 5863 5862 5860 5859 5858 5857 5856 5856 5855 5854 5854 5853 5853 5852 5852 5852 5851 5851 5851 5851 5850 5850 5850 5850 5850 5849 5849 5849 5848
5881 5881 5881 5880 5880 5879 5879 5878 5877 5876 5875 5874 5873 5871 5870 5869 5867 5866 5865 5863 5862 5861 5859 5858 5857 5856 5856 5855 5854 5854 5853 5852 5852 5851 5851 5850 5850 5850 5849 5849 5849 5848 5848 5848 5848 5848 5847 5847 5847
5880 5880 5879 5879 5878 5878 5877 5877 5876 5874 5873 5872 5871 5870 5868 5867 5866 5865 5863 5862 5861 5859 5858 5857 5856 5855 5854 5854 5853 5852 5852 5851 5850 5850 5849 5849 5849 5848 5848 5847 5847 5846 5846 5846 5846 5846 5845 5845 5844
5878 5878 5878 5877 5877 5876 5875 5875 5875 5873 5872 5870 5869 5868 5867 5866 5864 5863 5862 5860 5859 5858 5857 5855 5855 5854 5853 5852 5851 5851 5850 5849 5849 5848 5848 5847 5847 5846 5846 5845 5845 5844 5844 5844 5844 5844 5843 5843 5843
5876 5876 5876 5875 5875 5875 5873 5873 5873 5871 5870 5869 5867 5866 5865 5864 5862 5861 5860 5858 5857 5856 5855 5854 5853 5852 5851 5850 5850 5849 5848 5847 5847 5846 5846 5845 5845 5844 5844 5843 5843 5842 5842 5842 5842 5841 5841 5841 5840
5874 5875 5874 5873 5873 5872 5871 5870 5871 5869 5868 5866 5865 5864 5862 5861 5860 5859 5857 5856 5855 5854 5853 5852 5851 5850 5849 5848 5848 5847 5846 5846 5845 5844 5844 5843 5842 5842 5842 5841 5840 5840 5840 5839 5839 5838 5838 5838 5838
5871 5872 5872 5872 5870 5870 5869 5867 5868 5866 5865 5864 5863 5861 5860 5859 5857 5856 5855 5854 5853 5852 5851 5850 5849 5848 5847 5846 5845 5844 5844 5843 5843 5842 5841 5841 5840 5839 5839 5838 5838 5837 5837 5836 5836 5835 5835 5835 5834
5869 5868 5869 5868 5867 5867 5866 5865 5864 5863 5862 5861 5860 5859 5857 5856 5855 5853 5852 5851 5850 5849 5848 5847 5846 5845 5844 5843 5842 5842 5841 5840 5840 5839 5838 5838 5837 5836 5836 5835 5835 5834 5833 5833 5833 5832 5832 5831 5831
5866 5866 5865 5865 5864 5863 5863 5862 5862 5860 5859 5858 5857 5856 5854 5853 5852 5851 5849 5848 5847 5846 5845 5844 5843 5842 5841 5840 5839 5838 5838 5837 5836 5836 5835 5834 5834 5833 5832 5832 5831 5831 5830 5829 5829 5828 5828 5827 5827
5863 5863 5862 5861 5861 5860 5859 5861 5859 5857 5856 5855 5854 5853 5852 5850 5849 5847 5846 5845 5844 5843 5842 5841 5840 5839 5838 5837 5836 5835 5834 5833 5832 5832 5831 5830 5830 5829 5828 5828 5828 5827 5826 5826 5825 5825 5824 5823 5823
5859 5859 5859 5859 5858 5856 5855 5859 5855 5854 5853 5852 5851 5850 5848 5847 5845 5844 5842 5841 5840 5839 5838 5837 5837 5836 5835 5834 5833 5832 5831 5829 5828 5827 5827 5826 5825 5825 5824 5824 5823 5823 5822 5822 5821 5821 5820 5819 5818